DW3835 Weather Reports


time (UTC)temp
C
wind
direction
speed
KPH
gust
KPH
rain 1hr
cm
rain 24hr
cm
rain mn
cm
humidity
%
barometer
mb
20260503180025 13 138 1.6 8.0 0.00 0.00 0.00 86 1011.5
20260503173840 13 163 0.0 3.2 0.00 0.00 0.00 86 1011.3
20260503172835 13 163 0.0 8.0 0.00 0.00 0.00 84 1011.2
20260503171823 13 148 1.6 11.3 0.00 0.00 0.00 83 1011.2
20260503170821 13 148 1.6 11.3 0.00 0.00 0.00 82 1011.2
20260503150439 12 158 0.0 6.4 0.00 0.00 0.00 83 1010.7
20260503140210 12 160 0.0 1.6 0.00 0.00 0.00 85 1010.2
20260503131024 11 153 0.0 1.6 0.00 0.00 0.00 85 1009.5
20260503110559 12 166 0.0 4.8 0.00 0.00 0.00 84 1009.4
20260503100258 11 172 0.0 1.6 0.00 0.00 0.00 84 1009.3
20260503090119 12 146 0.0 1.6 0.00 0.00 0.00 84 1009.7
20260503080946 12 162 0.0 0.0 0.00 0.00 0.00 85 1010.0
20260503072803 12 165 0.0 4.8 0.00 0.00 0.00 84 1010.1
20260503071810 12 167 0.0 3.2 0.00 0.00 0.00 84 1010.2
20260503054637 12 163 0.0 3.2 0.00 0.00 0.00 83 1010.6
20260503053607 12 182 0.0 0.0 0.00 0.00 0.00 84 1010.6
20260503052600 12 91 0.0 0.0 0.00 0.00 0.00 83 1010.7
20260503051624 12 0 0.0 0.0 0.00 0.00 0.00 84 1010.6
20260503045547 12 183 0.0 4.8 0.00 0.00 0.00 83 1010.4
20260503043414 12 355 0.0 1.6 0.00 0.00 0.00 84 1010.4
20260503041237 12 46 0.0 0.0 0.00 0.00 0.00 83 1010.3
20260503040241 12 124 0.0 4.8 0.00 0.00 0.00 84 1010.1
20260503034107 12 162 0.0 4.8 0.00 0.00 0.00 84 1010.2
20260503031947 12 122 0.0 4.8 0.00 0.00 0.00 83 1009.9
20260503025809 12 117 0.0 4.8 0.00 0.00 0.00 83 1009.6
20260503024825 12 67 0.0 4.8 0.00 0.00 0.00 82 1009.5
20260503023814 12 167 0.0 0.0 0.00 0.00 0.00 82 1009.6
20260503022835 13 163 0.0 0.0 0.00 0.00 0.00 81 1009.5
20260503021841 13 42 0.0 1.6 0.00 0.00 0.00 81 1009.5
20260503020833 12 122 0.0 0.0 0.00 0.00 0.00 81 1009.6
20260503015811 13 124 0.0 4.8 0.00 0.00 0.00 80 1009.5
20260503014802 13 50 0.0 1.6 0.00 0.00 0.00 80 1009.6
20260503012614 13 82 0.0 4.8 0.00 0.00 0.00 78 1009.7
20260503011557 13 165 0.0 11.3 0.00 0.00 0.00 78 1009.6
20260503010605 14 97 0.0 11.3 0.00 0.00 0.00 78 1009.7
20260503004437 15 65 0.0 8.0 0.00 0.00 0.00 76 1009.7
20260503003416 15 226 0.0 8.0 0.00 0.00 0.00 76 1009.7
20260503002355 15 302 0.0 8.0 0.00 0.00 0.00 76 1009.8
20260503001344 15 159 0.0 6.4 0.00 0.00 0.00 76 1009.9
20260503000354 15 159 0.0 9.7 0.00 0.00 0.00 74 1009.8
20260502235359 15 174 1.6 9.7 0.00 0.00 0.00 74 1009.8
20260502234405 15 163 1.6 9.7 0.00 0.00 0.00 74 1010.0
20260502233345 15 151 1.6 6.4 0.00 0.00 0.00 73 1010.1
20260502225031 16 165 1.6 9.7 0.00 0.00 0.00 74 1010.6
20260502224046 16 148 1.6 11.3 0.00 0.00 0.00 72 1010.8
20260502223049 16 192 1.6 11.3 0.00 0.00 0.00 74 1010.9
20260502222028 16 188 1.6 11.3 0.00 0.00 0.00 73 1011.0
20260502221006 16 92 1.6 8.0 0.00 0.00 0.00 73 1011.2
20260502215953 16 115 1.6 11.3 0.00 0.00 0.00 74 1011.2
20260502215013 16 139 1.6 11.3 0.00 0.00 0.00 74 1011.4
20260502213944 16 196 3.2 12.9 0.00 0.00 0.00 73 1011.4
20260502212945 16 230 3.2 12.9 0.00 0.00 0.00 74 1011.4
20260502211947 16 82 1.6 12.9 0.00 0.00 0.00 75 1011.4
20260502210918 15 144 1.6 11.3 0.00 0.00 0.00 77 1011.5
20260502204755 15 172 1.6 9.7 0.00 0.00 0.00 79 1011.7
20260502202615 15 134 1.6 11.3 0.00 0.00 0.00 81 1011.9
20260502201610 14 169 1.6 11.3 0.00 0.00 0.00 81 1012.0
20260502200559 15 127 1.6 3.2 0.00 0.00 0.00 82 1012.1
20260502195538 14 207 1.6 9.7 0.00 0.00 0.00 82 1012.1
20260502194535 14 131 1.6 9.7 0.00 0.00 0.00 83 1012.0
20260502193512 13 167 0.0 12.9 0.00 0.00 0.00 85 1012.1
20260502192522 13 77 1.6 12.9 0.00 0.00 0.00 86 1012.2
20260502191448 13 148 1.6 6.4 0.00 0.00 0.00 86 1012.2
20260502190433 13 170 0.0 4.8 0.00 0.00 0.00 87 1012.3
20260502184239 13 176 0.0 14.5 0.00 0.00 0.00 87 1012.2
20260502183207 12 177 1.6 14.5 0.00 0.00 0.00 86 1012.2
20260502182151 12 202 1.6 9.7 0.00 0.00 0.00 87 1012.2